This demonstration page uses our WeatherBlox Daily Observations layout. Learn more.

Hourly Observations for July 27, 2019

Temp ( °F °C ) Dew Point ( °F °C ) Humidity (%) Winds ( mph kmh ) Pressure ( in mb ) Visibility ( mi km ) Precip ( " mm )
12:15 am 00:15 Clear 68 20 68 20 100 100 Calm 30.27 1025 10 16.09344 0 0
12:35 am 00:35 Clear 70 21 68 20 94 94 Calm 30.27 1025 10 16.09344 0 0
12:55 am 00:55 Clear 70 21 66 19 88 88 Calm 30.27 1025 10 16.09344 0 0
1:15 am 01:15 Clear 68 20 66 19 94 94 Calm 30.27 1025 10 16.09344 0 0
1:35 am 01:35 Clear 68 20 64 18 88 88 Calm 30.27 1025 10 16.09344 0 0
1:55 am 01:55 Clear 66 19 64 18 94 94 Calm 30.27 1025 10 16.09344 0 0
2:15 am 02:15 Clear 64 18 64 18 100 100 Calm 30.27 1025 10 16.09344 0 0
2:35 am 02:35 Clear 64 18 64 18 100 100 Calm 30.27 1025 10 16.09344 0 0
2:55 am 02:55 Clear 64 18 64 18 100 100 Calm 30.27 1025 10 16.09344 0 0
3:15 am 03:15 Clear 66 19 64 18 94 94 Calm 30.27 1025 10 16.09344 0 0
3:35 am 03:35 Clear 68 20 64 18 88 88 Calm 30.27 1025 10 16.09344 0 0
3:55 am 03:55 Clear 64 18 64 18 100 100 Calm 30.27 1025 10 16.09344 0 0
4:15 am 04:15 Clear 66 19 64 18 94 94 Calm 30.27 1025 10 16.09344 0 0
4:35 am 04:35 Clear 64 18 64 18 100 100 Calm 30.27 1025 10 16.09344 0 0
4:55 am 04:55 Clear 64 18 64 18 100 100 Calm 30.27 1025 10 16.09344 0 0
5:15 am 05:15 Clear 64 18 64 18 100 100 Calm 30.3 1026 10 16.09344 0 0
5:35 am 05:35 Clear 64 18 63 17 94 94 Calm 30.3 1026 10 16.09344 0 0
5:55 am 05:55 Clear 63 17 63 17 100 100 Calm 30.3 1026 10 16.09344 0 0
6:15 am 06:15 Sunny 63 17 63 17 100 100 Calm 30.3 1026 10 16.09344 0 0
6:35 am 06:35 Sunny 63 17 63 17 100 100 Calm 30.3 1026 10 16.09344 0 0
6:55 am 06:55 Sunny 64 18 63 17 94 94 Calm 30.3 1026 10 16.09344 0 0
7:15 am 07:15 Sunny 64 18 64 18 100 100 Calm 30.3 1026 10 16.09344 0 0
7:35 am 07:35 Sunny 66 19 64 18 94 94 Calm 30.3 1026 10 16.09344 0 0
7:55 am 07:55 Sunny 68 20 66 19 94 94 Calm 30.3 1026 10 16.09344 0 0
8:15 am 08:15 Sunny 70 21 66 19 88 88 Calm 30.3 1026 10 16.09344 0 0
8:35 am 08:35 Sunny 72 22 68 20 88 88 Calm 30.3 1026 10 16.09344 0 0
8:55 am 08:55 Sunny 73 23 66 19 78 78 Calm 30.3 1026 10 16.09344 0 0
9:15 am 09:15 Sunny 75 24 68 20 78 78 Calm 30.3 1026 10 16.09344 0 0
9:35 am 09:35 Sunny 77 25 68 20 74 74 Calm 30.3 1026 10 16.09344 0 0
9:55 am 09:55 Sunny 79 26 68 20 70 70 Calm 30.33 1027 10 16.09344 0 0
10:15 am 10:15 Sunny 81 27 68 20 66 66 SSE 3 6 30.3 1026 10 16.09344 0 0
10:35 am 10:35 Sunny 81 27 68 20 66 66 SSW 5 7 30.3 1026 10 16.09344 0 0
10:55 am 10:55 Sunny 82 28 68 20 62 62 SSW 5 7 30.3 1026 10 16.09344 0 0
11:15 am 11:15 Sunny 86 30 68 20 55 55 S 5 7 30.3 1026 10 16.09344 0 0
11:35 am 11:35 Sunny 86 30 64 18 49 49 S 5 7 30.3 1026 10 16.09344 0 0
11:55 am 11:55 Sunny 86 30 64 18 49 49 SSW 3 6 30.3 1026 10 16.09344 0 0
12:15 pm 12:15 Sunny 86 30 63 17 46 46 S 5 7 30.27 1025 10 16.09344 0 0
12:35 pm 12:35 Sunny 88 31 64 18 46 46 S 3 6 30.27 1025 10 16.09344 0 0
12:55 pm 12:55 Partly Cloudy 88 31 64 18 46 46 Calm 30.27 1025 10 16.09344 0 0
1:15 pm 13:15 Partly Cloudy 88 31 63 17 43 43 SSW 6 9 30.27 1025 10 16.09344 0 0
1:35 pm 13:35 Sunny 90 32 63 17 41 41 WSW 5 7 30.27 1025 10 16.09344 0 0
1:55 pm 13:55 Sunny 88 31 63 17 43 43 NW 3 6 30.24 1024 10 16.09344 0 0
2:15 pm 14:15 Sunny 88 31 66 19 49 49 WNW 6 9 30.24 1024 10 16.09344 0 0
2:35 pm 14:35 Sunny 88 31 64 18 46 46 Calm 30.24 1024 10 16.09344 0 0
2:55 pm 14:55 Sunny 90 32 64 18 43 43 SSW 3 6 30.24 1024 10 16.09344 0 0
3:15 pm 15:15 Sunny 90 32 64 18 43 43 WSW 7 11 30.24 1024 10 16.09344 0 0
3:35 pm 15:35 Sunny 90 32 64 18 43 43 Calm 30.21 1023 10 16.09344 0 0
3:55 pm 15:55 Sunny 90 32 64 18 43 43 SSW 3 6 30.21 1023 10 16.09344 0 0
4:15 pm 16:15 Sunny 90 32 64 18 43 43 S 5 7 30.21 1023 10 16.09344 0 0
4:35 pm 16:35 Sunny 90 32 64 18 43 43 SSW 3 6 30.21 1023 10 16.09344 0 0
4:55 pm 16:55 Sunny 90 32 64 18 43 43 SSW 3 6 30.21 1023 10 16.09344 0 0
5:15 pm 17:15 Partly Cloudy 90 32 64 18 43 43 Calm 30.21 1023 10 16.09344 0 0
5:35 pm 17:35 Partly Cloudy 90 32 64 18 43 43 Calm 30.18 1022 10 16.09344 0 0
5:55 pm 17:55 Partly Cloudy 90 32 64 18 43 43 SW 5 7 30.18 1022 10 16.09344 0 0
6:15 pm 18:15 Partly Cloudy 90 32 64 18 43 43 SSW 5 7 30.18 1022 10 16.09344 0 0
6:35 pm 18:35 Sunny 90 32 64 18 43 43 SW 5 7 30.18 1022 10 16.09344 0 0
6:55 pm 18:55 Sunny 90 32 64 18 43 43 SW 3 6 30.18 1022 10 16.09344 0 0
7:15 pm 19:15 Mostly Cloudy 88 31 64 18 46 46 S 6 9 30.18 1022 10 16.09344 0 0
7:35 pm 19:35 Mostly Cloudy 88 31 63 17 43 43 S 6 9 30.18 1022 10 16.09344 0 0
7:55 pm 19:55 Partly Cloudy 88 31 63 17 43 43 S 8 13 30.18 1022 10 16.09344 0 0
8:15 pm 20:15 Partly Cloudy 86 30 63 17 46 46 S 6 9 30.18 1022 10 16.09344 0 0
8:35 pm 20:35 Clear 82 28 63 17 51 51 S 5 7 30.18 1022 10 16.09344 0 0
8:55 pm 20:55 Clear 82 28 63 17 51 51 S 6 9 30.18 1022 10 16.09344 0 0
9:15 pm 21:15 Clear 81 27 63 17 54 54 S 5 7 30.21 1023 10 16.09344 0 0
9:35 pm 21:35 Clear 81 27 63 17 54 54 S 6 9 30.21 1023 10 16.09344 0 0
9:55 pm 21:55 Clear 79 26 63 17 58 58 S 5 7 30.21 1023 10 16.09344 0 0
10:15 pm 22:15 Clear 79 26 64 18 61 61 S 5 7 30.21 1023 10 16.09344 0 0
10:35 pm 22:35 Mostly Cloudy 79 26 64 18 61 61 S 5 7 30.21 1023 10 16.09344 0 0
10:55 pm 22:55 Cloudy 79 26 64 18 61 61 S 3 6 30.21 1023 10 16.09344 0 0
11:15 pm 23:15 Cloudy 77 25 64 18 65 65 N 7 11 30.21 1023 10 16.09344 0 0
11:35 pm 23:35 Cloudy 79 26 64 18 61 61 Calm 30.21 1023 10 16.09344 0 0
11:55 pm 23:55 Cloudy 81 27 64 18 58 58 Calm 30.21 1023 10 16.09344 0 0

Powered by AerisWeather